| time (UTC) | temp C | wind direction | speed KPH | gust KPH | rain 1hr cm | rain 24hr cm | rain mn cm | humidity % | barometer mb |
| 20260906122029 | 24 | 0 | 0.0 | 0.0 | 0.00 | 0.00 | 0.00 | 89 | 1013.8 |
| 20260906121558 | 23 | 0 | 0.0 | 1.6 | 0.00 | 0.00 | 0.00 | 90 | 1013.8 |
| 20260906121029 | 23 | 0 | 0.0 | 1.6 | 0.00 | 0.00 | 0.00 | 91 | 1013.6 |
| 20260906120529 | 23 | 0 | 0.0 | 1.6 | 0.00 | 0.00 | 0.00 | 91 | 1013.5 |
| 20260906120111 | 23 | 0 | 0.0 | 3.2 | 0.00 | 0.00 | 0.00 | 91 | 1013.5 |
| 20260906115530 | 22 | 0 | 0.0 | 3.2 | 0.00 | 0.00 | 0.00 | 91 | 1013.4 |
| 20260906115028 | 22 | 213 | 0.0 | 4.8 | 0.00 | 0.00 | 0.00 | 91 | 1013.4 |
| 20260906114551 | 22 | 0 | 0.0 | 9.7 | 0.00 | 0.00 | 0.00 | 91 | 1013.2 |
| 20260906114028 | 22 | 0 | 0.0 | 9.7 | 0.00 | 0.00 | 0.00 | 91 | 1013.3 |
| 20260906113529 | 22 | 0 | 0.0 | 9.7 | 0.00 | 0.00 | 0.00 | 91 | 1013.2 |
| 20260906113054 | 22 | 0 | 1.6 | 9.7 | 0.00 | 0.00 | 0.00 | 91 | 1013.0 |
| 20260906112528 | 22 | 236 | 1.6 | 9.7 | 0.00 | 0.00 | 0.00 | 91 | 1013.0 |
| 20260906112029 | 22 | 0 | 1.6 | 9.7 | 0.00 | 0.00 | 0.00 | 91 | 1013.0 |
| 20260906111548 | 22 | 200 | 0.0 | 9.7 | 0.00 | 0.00 | 0.00 | 91 | 1013.1 |
| 20260906111030 | 22 | 0 | 3.2 | 9.7 | 0.00 | 0.00 | 0.00 | 92 | 1012.9 |
| 20260906110529 | 22 | 240 | 1.6 | 9.7 | 0.00 | 0.00 | 0.00 | 92 | 1013.0 |
| 20260906110056 | 22 | 0 | 1.6 | 4.8 | 0.00 | 0.00 | 0.00 | 91 | 1012.8 |
| 20260906105529 | 22 | 0 | 0.0 | 4.8 | 0.00 | 0.00 | 0.00 | 91 | 1012.8 |
| 20260906105027 | 22 | 0 | 0.0 | 4.8 | 0.00 | 0.00 | 0.00 | 91 | 1012.8 |
| 20260906104556 | 22 | 167 | 0.0 | 4.8 | 0.00 | 0.00 | 0.00 | 91 | 1012.7 |
| 20260906104028 | 22 | 167 | 0.0 | 4.8 | 0.00 | 0.00 | 0.00 | 90 | 1012.7 |
| 20260906103528 | 22 | 0 | 0.0 | 4.8 | 0.00 | 0.00 | 0.00 | 90 | 1012.7 |
| 20260906103100 | 22 | 0 | 0.0 | 3.2 | 0.00 | 0.00 | 0.00 | 90 | 1012.7 |
| 20260906102531 | 22 | 0 | 0.0 | 3.2 | 0.00 | 0.00 | 0.00 | 90 | 1012.7 |
| 20260906102030 | 22 | 0 | 0.0 | 3.2 | 0.00 | 0.00 | 0.00 | 89 | 1012.5 |
| 20260906101548 | 22 | 0 | 0.0 | 1.6 | 0.00 | 0.00 | 0.00 | 89 | 1012.5 |
| 20260906101031 | 23 | 0 | 0.0 | 3.2 | 0.00 | 0.00 | 0.00 | 89 | 1012.4 |
| 20260906100528 | 23 | 0 | 0.0 | 4.8 | 0.00 | 0.00 | 0.00 | 89 | 1012.4 |
| 20260906100055 | 23 | 113 | 1.6 | 4.8 | 0.00 | 0.00 | 0.00 | 89 | 1012.3 |
| 20260906095529 | 23 | 115 | 0.0 | 4.8 | 0.00 | 0.00 | 0.00 | 89 | 1012.3 |
| 20260906095029 | 23 | 0 | 1.6 | 4.8 | 0.00 | 0.00 | 0.00 | 89 | 1012.3 |
| 20260906094551 | 23 | 132 | 0.0 | 3.2 | 0.00 | 0.00 | 0.00 | 88 | 1012.2 |
| 20260906094030 | 23 | 190 | 0.0 | 6.4 | 0.00 | 0.00 | 0.00 | 88 | 1012.2 |
| 20260906093530 | 23 | 196 | 0.0 | 6.4 | 0.00 | 0.00 | 0.00 | 88 | 1012.3 |
| 20260906093054 | 23 | 0 | 1.6 | 8.0 | 0.00 | 0.00 | 0.00 | 88 | 1012.4 |
| 20260906092529 | 23 | 139 | 0.0 | 8.0 | 0.00 | 0.00 | 0.00 | 88 | 1012.2 |
| 20260906092029 | 23 | 0 | 0.0 | 8.0 | 0.00 | 0.00 | 0.00 | 87 | 1012.3 |
| 20260906091559 | 23 | 147 | 0.0 | 3.2 | 0.00 | 0.00 | 0.00 | 87 | 1012.2 |
| 20260906091027 | 23 | 0 | 0.0 | 3.2 | 0.00 | 0.00 | 0.00 | 87 | 1012.2 |
| 20260906090529 | 23 | 0 | 0.0 | 6.4 | 0.00 | 0.00 | 0.00 | 86 | 1012.2 |
| 20260906090055 | 23 | 143 | 1.6 | 6.4 | 0.00 | 0.00 | 0.00 | 86 | 1012.2 |
| 20260906085528 | 23 | 150 | 1.6 | 6.4 | 0.00 | 0.00 | 0.00 | 86 | 1012.1 |
| 20260906085029 | 23 | 0 | 0.0 | 9.7 | 0.00 | 0.00 | 0.00 | 86 | 1012.1 |
| 20260906084549 | 23 | 166 | 3.2 | 9.7 | 0.00 | 0.00 | 0.00 | 86 | 1012.1 |
| 20260906084026 | 23 | 180 | 3.2 | 9.7 | 0.00 | 0.00 | 0.00 | 85 | 1012.1 |
| 20260906083529 | 24 | 167 | 1.6 | 9.7 | 0.00 | 0.00 | 0.00 | 85 | 1012.1 |
| 20260906083048 | 24 | 186 | 3.2 | 9.7 | 0.00 | 0.00 | 0.00 | 85 | 1012.2 |
| 20260906082528 | 24 | 159 | 3.2 | 8.0 | 0.00 | 0.00 | 0.00 | 85 | 1012.2 |
| 20260906082029 | 24 | 159 | 3.2 | 9.7 | 0.00 | 0.00 | 0.00 | 84 | 1012.2 |
| 20260906081548 | 24 | 144 | 3.2 | 11.3 | 0.00 | 0.00 | 0.00 | 84 | 1012.2 |
| 20260906081029 | 24 | 161 | 3.2 | 11.3 | 0.00 | 0.00 | 0.00 | 84 | 1012.1 |
| 20260906080532 | 24 | 178 | 4.8 | 9.7 | 0.00 | 0.00 | 0.00 | 84 | 1012.1 |
| 20260906080057 | 24 | 184 | 3.2 | 9.7 | 0.00 | 0.00 | 0.00 | 84 | 1012.1 |
| 20260906075529 | 24 | 163 | 3.2 | 11.3 | 0.00 | 0.00 | 0.00 | 84 | 1012.2 |
| 20260906075029 | 24 | 203 | 3.2 | 11.3 | 0.00 | 0.00 | 0.00 | 83 | 1012.2 |
| 20260906074550 | 24 | 0 | 1.6 | 11.3 | 0.00 | 0.00 | 0.00 | 83 | 1012.2 |
| 20260906074028 | 24 | 180 | 1.6 | 9.7 | 0.00 | 0.00 | 0.00 | 83 | 1012.2 |
| 20260906073529 | 25 | 176 | 3.2 | 9.7 | 0.00 | 0.00 | 0.00 | 82 | 1012.3 |
| 20260906073048 | 25 | 135 | 3.2 | 9.7 | 0.00 | 0.00 | 0.00 | 82 | 1012.2 |
| 20260906072529 | 25 | 148 | 4.8 | 12.9 | 0.00 | 0.00 | 0.00 | 82 | 1012.2 |
| 20260906072029 | 25 | 176 | 4.8 | 12.9 | 0.00 | 0.00 | 0.00 | 82 | 1012.3 |
| 20260906071600 | 25 | 167 | 3.2 | 11.3 | 0.00 | 0.00 | 0.00 | 81 | 1012.3 |
| 20260906071029 | 25 | 195 | 3.2 | 11.3 | 0.00 | 0.00 | 0.00 | 81 | 1012.3 |
| 20260906070529 | 25 | 128 | 1.6 | 8.0 | 0.00 | 0.00 | 0.00 | 81 | 1012.5 |
| 20260906070058 | 25 | 175 | 1.6 | 9.7 | 0.00 | 0.00 | 0.00 | 81 | 1012.5 |
| 20260906065529 | 25 | 150 | 1.6 | 11.3 | 0.00 | 0.00 | 0.00 | 81 | 1012.5 |
| 20260906065028 | 25 | 185 | 3.2 | 11.3 | 0.00 | 0.00 | 0.00 | 80 | 1012.4 |
| 20260906064549 | 25 | 153 | 3.2 | 16.1 | 0.00 | 0.00 | 0.00 | 80 | 1012.3 |
| 20260906064029 | 25 | 158 | 4.8 | 16.1 | 0.00 | 0.00 | 0.00 | 80 | 1012.5 |
| 20260906063527 | 25 | 148 | 4.8 | 11.3 | 0.00 | 0.00 | 0.00 | 80 | 1012.4 |
| 20260906063048 | 25 | 117 | 3.2 | 17.7 | 0.00 | 0.00 | 0.00 | 81 | 1012.5 |
| 20260906062528 | 25 | 121 | 3.2 | 17.7 | 0.00 | 0.00 | 0.00 | 81 | 1012.7 |
| 20260906062031 | 25 | 128 | 6.4 | 16.1 | 0.00 | 0.00 | 0.00 | 81 | 1012.8 |
| 20260906061613 | 25 | 127 | 4.8 | 16.1 | 0.00 | 0.00 | 0.00 | 81 | 1012.9 |
| 20260906061027 | 25 | 127 | 4.8 | 16.1 | 0.00 | 0.00 | 0.00 | 82 | 1012.9 |
| 20260906060530 | 25 | 168 | 3.2 | 16.1 | 0.00 | 0.00 | 0.00 | 83 | 1012.9 |
| 20260906055529 | 25 | 103 | 3.2 | 9.7 | 0.00 | 0.00 | 0.00 | 83 | 1013.0 |
| 20260906055031 | 25 | 132 | 3.2 | 12.9 | 0.00 | 0.00 | 0.00 | 83 | 1013.0 |
| 20260906054601 | 26 | 153 | 1.6 | 12.9 | 0.00 | 0.00 | 0.00 | 83 | 1013.1 |
| 20260906054029 | 26 | 128 | 4.8 | 12.9 | 0.00 | 0.00 | 0.00 | 82 | 1013.1 |
| 20260906053530 | 26 | 98 | 1.6 | 8.0 | 0.00 | 0.00 | 0.00 | 82 | 1013.1 |
| 20260906053057 | 26 | 126 | 3.2 | 8.0 | 0.00 | 0.00 | 0.00 | 81 | 1013.0 |
| 20260906052527 | 26 | 116 | 3.2 | 6.4 | 0.00 | 0.00 | 0.00 | 81 | 1013.0 |
| 20260906052029 | 26 | 85 | 1.6 | 6.4 | 0.00 | 0.00 | 0.00 | 80 | 1013.0 |
| 20260906051604 | 26 | 0 | 1.6 | 9.7 | 0.00 | 0.00 | 0.00 | 80 | 1013.0 |
| 20260906051028 | 26 | 110 | 3.2 | 9.7 | 0.00 | 0.00 | 0.00 | 79 | 1013.0 |
| 20260906050531 | 26 | 69 | 4.8 | 8.0 | 0.00 | 0.00 | 0.00 | 79 | 1013.1 |
| 20260906050057 | 26 | 65 | 1.6 | 11.3 | 0.00 | 0.00 | 0.00 | 78 | 1013.0 |
| 20260906045529 | 26 | 117 | 0.0 | 11.3 | 0.00 | 0.00 | 0.00 | 78 | 1013.0 |
| 20260906045033 | 27 | 35 | 3.2 | 8.0 | 0.00 | 0.00 | 0.00 | 78 | 1013.0 |
| 20260906044548 | 27 | 67 | 1.6 | 6.4 | 0.00 | 0.00 | 0.00 | 78 | 1012.8 |
| 20260906044034 | 27 | 57 | 0.0 | 9.7 | 0.00 | 0.00 | 0.00 | 78 | 1012.9 |
| 20260906043528 | 27 | 82 | 1.6 | 9.7 | 0.00 | 0.00 | 0.00 | 78 | 1013.0 |
| 20260906043046 | 27 | 339 | 4.8 | 8.0 | 0.00 | 0.00 | 0.00 | 78 | 1013.1 |
| 20260906042530 | 27 | 0 | 0.0 | 4.8 | 0.00 | 0.00 | 0.00 | 77 | 1012.8 |
| 20260906042028 | 27 | 105 | 1.6 | 6.4 | 0.00 | 0.00 | 0.00 | 77 | 1012.8 |
| 20260906041558 | 27 | 186 | 0.0 | 6.4 | 0.00 | 0.00 | 0.00 | 77 | 1012.7 |
| 20260906041029 | 27 | 153 | 3.2 | 6.4 | 0.00 | 0.00 | 0.00 | 78 | 1012.8 |
| 20260906040527 | 27 | 105 | 1.6 | 9.7 | 0.00 | 0.00 | 0.00 | 79 | 1013.0 |
| 20260906040053 | 27 | 213 | 1.6 | 9.7 | 0.00 | 0.00 | 0.00 | 79 | 1013.0 |
| 20260906035526 | 27 | 104 | 3.2 | 8.0 | 0.00 | 0.00 | 0.00 | 80 | 1013.2 |
| 20260906035030 | 27 | 159 | 1.6 | 8.0 | 0.00 | 0.00 | 0.00 | 80 | 1013.1 |
| 20260906034555 | 27 | 69 | 3.2 | 6.4 | 0.00 | 0.00 | 0.00 | 81 | 1013.2 |
| 20260906034029 | 27 | 75 | 0.0 | 0.0 | 0.00 | 0.00 | 0.00 | 80 | 1012.9 |
| 20260906033529 | 27 | 0 | 0.0 | 0.0 | 0.00 | 0.00 | 0.00 | 79 | 1012.8 |
| 20260906033049 | 27 | 0 | 0.0 | 0.0 | 0.00 | 0.00 | 0.00 | 80 | 1012.8 |
| 20260906032529 | 27 | 0 | 0.0 | 0.0 | 0.00 | 0.00 | 0.00 | 79 | 1013.0 |
| 20260906032030 | 28 | 0 | 0.0 | 0.0 | 0.00 | 0.00 | 0.00 | 79 | 1012.9 |
| 20260906031556 | 28 | 0 | 0.0 | 0.0 | 0.00 | 0.00 | 0.00 | 78 | 1012.8 |
| 20260906031032 | 28 | 0 | 0.0 | 3.2 | 0.00 | 0.00 | 0.00 | 78 | 1012.7 |
| 20260906030527 | 28 | 0 | 0.0 | 3.2 | 0.00 | 0.00 | 0.00 | 77 | 1012.5 |
| 20260906030054 | 28 | 75 | 0.0 | 6.4 | 0.00 | 0.00 | 0.00 | 77 | 1012.5 |
| 20260906025530 | 28 | 75 | 0.0 | 6.4 | 0.00 | 0.00 | 0.00 | 77 | 1012.4 |
| 20260906025029 | 28 | 60 | 1.6 | 9.7 | 0.00 | 0.00 | 0.00 | 77 | 1012.2 |
| 20260906024550 | 28 | 113 | 1.6 | 9.7 | 0.00 | 0.00 | 0.00 | 77 | 1012.2 |
| 20260906024030 | 28 | 117 | 1.6 | 6.4 | 0.00 | 0.00 | 0.00 | 77 | 1012.2 |
| 20260906023530 | 28 | 67 | 0.0 | 9.7 | 0.00 | 0.00 | 0.00 | 77 | 1012.1 |
| 20260906023050 | 28 | 258 | 1.6 | 9.7 | 0.00 | 0.00 | 0.00 | 77 | 1012.0 |
| 20260906022529 | 28 | 115 | 3.2 | 8.0 | 0.00 | 0.00 | 0.00 | 77 | 1011.8 |
| 20260906022029 | 28 | 0 | 1.6 | 4.8 | 0.00 | 0.00 | 0.00 | 76 | 1011.9 |
| 20260906021554 | 28 | 121 | 0.0 | 3.2 | 0.00 | 0.00 | 0.00 | 76 | 1011.8 |
| 20260906021028 | 28 | 121 | 1.6 | 3.2 | 0.00 | 0.00 | 0.00 | 75 | 1011.6 |
| 20260906020528 | 28 | 197 | 0.0 | 3.2 | 0.00 | 0.00 | 0.00 | 75 | 1011.3 |
| 20260906020057 | 28 | 197 | 0.0 | 1.6 | 0.00 | 0.00 | 0.00 | 73 | 1011.4 |
| 20260906015528 | 29 | 0 | 0.0 | 1.6 | 0.00 | 0.00 | 0.00 | 73 | 1011.4 |
| 20260906015029 | 29 | 0 | 0.0 | 3.2 | 0.00 | 0.00 | 0.00 | 72 | 1011.4 |
| 20260906014607 | 29 | 0 | 0.0 | 3.2 | 0.00 | 0.00 | 0.00 | 72 | 1011.4 |
| 20260906014028 | 29 | 0 | 0.0 | 4.8 | 0.00 | 0.00 | 0.00 | 73 | 1011.5 |
| 20260906013529 | 29 | 242 | 0.0 | 4.8 | 0.00 | 0.00 | 0.00 | 72 | 1011.2 |
| 20260906013059 | 28 | 246 | 0.0 | 4.8 | 0.00 | 0.00 | 0.00 | 74 | 1011.3 |
| 20260906012528 | 28 | 244 | 0.0 | 3.2 | 0.00 | 0.00 | 0.00 | 73 | 1011.4 |
| 20260906012029 | 28 | 0 | 0.0 | 3.2 | 0.00 | 0.00 | 0.00 | 74 | 1011.4 |
| 20260906011546 | 29 | 0 | 0.0 | 3.2 | 0.00 | 0.00 | 0.00 | 75 | 1011.4 |
| 20260906011029 | 29 | 0 | 0.0 | 3.2 | 0.00 | 0.00 | 0.00 | 75 | 1011.2 |
| 20260906010528 | 29 | 0 | 0.0 | 0.0 | 0.00 | 0.00 | 0.00 | 75 | 1011.2 |
| 20260906010100 | 29 | 0 | 0.0 | 0.0 | 0.00 | 0.00 | 0.00 | 74 | 1011.2 |
| 20260906005530 | 30 | 0 | 0.0 | 0.0 | 0.00 | 0.00 | 0.00 | 73 | 1011.3 |
| 20260906005028 | 30 | 0 | 0.0 | 1.6 | 0.00 | 0.00 | 0.00 | 73 | 1011.3 |
| 20260906004552 | 30 | 0 | 0.0 | 1.6 | 0.00 | 0.00 | 0.00 | 72 | 1011.3 |
| 20260906004031 | 30 | 0 | 0.0 | 1.6 | 0.00 | 0.00 | 0.00 | 71 | 1011.3 |
| 20260906003530 | 31 | 0 | 0.0 | 0.0 | 0.00 | 0.00 | 0.00 | 69 | 1011.3 |
| 20260906003047 | 31 | 0 | 0.0 | 1.6 | 0.00 | 0.00 | 0.00 | 69 | 1011.5 |
| 20260906002527 | 31 | 0 | 0.0 | 1.6 | 0.00 | 0.00 | 0.00 | 68 | 1011.5 |
| 20260906002029 | 31 | 0 | 0.0 | 1.6 | 0.00 | 0.00 | 0.00 | 67 | 1011.5 |
| 20260906001559 | 32 | 0 | 0.0 | 1.6 | 0.00 | 0.00 | 0.00 | 65 | 1011.3 |
| 20260906001030 | 32 | 0 | 0.0 | 1.6 | 0.00 | 0.00 | 0.00 | 65 | 1011.4 |
| 20260906000529 | 32 | 0 | 0.0 | 1.6 | 0.00 | 0.00 | 0.00 | 63 | 1011.3 |
| 20260906000059 | 32 | 0 | 0.0 | 1.6 | 0.00 | 0.00 | 0.00 | 62 | 1011.4 |
| 20260905235529 | 33 | 0 | 0.0 | 1.6 | 0.00 | 0.00 | 0.00 | 61 | 1011.3 |
| 20260905235030 | 33 | 0 | 0.0 | 1.6 | 0.00 | 0.00 | 0.00 | 60 | 1011.4 |
| 20260905234550 | 33 | 0 | 0.0 | 1.6 | 0.00 | 0.00 | 0.00 | 59 | 1011.3 |
| 20260905234029 | 33 | 0 | 0.0 | 1.6 | 0.00 | 0.00 | 0.00 | 59 | 1011.4 |
| 20260905233532 | 33 | 235 | 0.0 | 1.6 | 0.00 | 0.00 | 0.00 | 58 | 1011.4 |
| 20260905233109 | 34 | 0 | 0.0 | 3.2 | 0.00 | 0.00 | 0.00 | 57 | 1011.3 |
| 20260905232528 | 34 | 0 | 0.0 | 4.8 | 0.00 | 0.00 | 0.00 | 56 | 1011.4 |
| 20260905232029 | 34 | 0 | 0.0 | 6.4 | 0.00 | 0.00 | 0.00 | 55 | 1011.2 |
| 20260905231559 | 35 | 223 | 0.0 | 6.4 | 0.00 | 0.00 | 0.00 | 55 | 1011.2 |
| 20260905231034 | 35 | 247 | 0.0 | 6.4 | 0.00 | 0.00 | 0.00 | 55 | 1011.3 |
| 20260905230529 | 35 | 238 | 1.6 | 6.4 | 0.00 | 0.00 | 0.00 | 54 | 1011.3 |
| 20260905230057 | 35 | 233 | 1.6 | 6.4 | 0.00 | 0.00 | 0.00 | 54 | 1011.3 |
| 20260905225528 | 35 | 239 | 0.0 | 6.4 | 0.00 | 0.00 | 0.00 | 54 | 1011.3 |
| 20260905225029 | 35 | 248 | 1.6 | 6.4 | 0.00 | 0.00 | 0.00 | 53 | 1011.3 |
| 20260905224548 | 35 | 242 | 0.0 | 6.4 | 0.00 | 0.00 | 0.00 | 54 | 1011.2 |
| 20260905224028 | 35 | 194 | 1.6 | 6.4 | 0.00 | 0.00 | 0.00 | 53 | 1011.3 |
| 20260905223533 | 35 | 289 | 0.0 | 6.4 | 0.00 | 0.00 | 0.00 | 53 | 1011.2 |
| 20260905223101 | 35 | 252 | 1.6 | 6.4 | 0.00 | 0.00 | 0.00 | 52 | 1011.2 |
| 20260905222529 | 36 | 227 | 1.6 | 6.4 | 0.00 | 0.00 | 0.00 | 53 | 1011.2 |
| 20260905222029 | 36 | 258 | 1.6 | 6.4 | 0.00 | 0.00 | 0.00 | 52 | 1011.3 |
| 20260905221557 | 36 | 218 | 1.6 | 4.8 | 0.00 | 0.00 | 0.00 | 52 | 1011.3 |
| 20260905221029 | 36 | 296 | 0.0 | 4.8 | 0.00 | 0.00 | 0.00 | 52 | 1011.3 |
| 20260905220529 | 36 | 219 | 0.0 | 4.8 | 0.00 | 0.00 | 0.00 | 52 | 1011.3 |
| 20260905220058 | 36 | 263 | 1.6 | 4.8 | 0.00 | 0.00 | 0.00 | 51 | 1011.3 |
| 20260905215529 | 36 | 232 | 0.0 | 6.4 | 0.00 | 0.00 | 0.00 | 51 | 1011.3 |
| 20260905215028 | 36 | 282 | 0.0 | 6.4 | 0.00 | 0.00 | 0.00 | 50 | 1011.3 |
| 20260905214553 | 36 | 243 | 1.6 | 8.0 | 0.00 | 0.00 | 0.00 | 49 | 1011.3 |
| 20260905214030 | 37 | 0 | 1.6 | 8.0 | 0.00 | 0.00 | 0.00 | 50 | 1011.3 |
| 20260905213528 | 37 | 235 | 3.2 | 8.0 | 0.00 | 0.00 | 0.00 | 50 | 1011.3 |
| 20260905213059 | 37 | 0 | 1.6 | 6.4 | 0.00 | 0.00 | 0.00 | 48 | 1011.4 |
| 20260905212529 | 37 | 13 | 3.2 | 6.4 | 0.00 | 0.00 | 0.00 | 48 | 1011.4 |
| 20260905212032 | 37 | 344 | 1.6 | 3.2 | 0.00 | 0.00 | 0.00 | 48 | 1011.4 |
| 20260905211553 | 37 | 297 | 0.0 | 4.8 | 0.00 | 0.00 | 0.00 | 47 | 1011.4 |
| 20260905211028 | 37 | 0 | 0.0 | 6.4 | 0.00 | 0.00 | 0.00 | 46 | 1011.4 |
| 20260905210528 | 37 | 264 | 1.6 | 6.4 | 0.00 | 0.00 | 0.00 | 49 | 1011.4 |
| 20260905210055 | 37 | 22 | 0.0 | 4.8 | 0.00 | 0.00 | 0.00 | 46 | 1011.6 |
| 20260905205556 | 37 | 62 | 0.0 | 4.8 | 0.00 | 0.00 | 0.00 | 48 | 1011.5 |
| 20260905205030 | 37 | 295 | 1.6 | 6.4 | 0.00 | 0.00 | 0.00 | 46 | 1011.7 |
| 20260905204955 | 37 | 278 | 1.6 | 6.4 | 0.00 | 0.00 | 0.00 | 48 | 1011.7 |
| 20260905204029 | 37 | 190 | 0.0 | 4.8 | 0.00 | 0.00 | 0.00 | 47 | 1011.6 |
| 20260905203529 | 37 | 319 | 1.6 | 4.8 | 0.00 | 0.00 | 0.00 | 47 | 1011.7 |
| 20260905203053 | 37 | 281 | 3.2 | 8.0 | 0.00 | 0.00 | 0.00 | 49 | 1011.9 |
| 20260905202528 | 37 | 261 | 1.6 | 8.0 | 0.00 | 0.00 | 0.00 | 46 | 1011.9 |
| 20260905202032 | 38 | 319 | 1.6 | 9.7 | 0.00 | 0.00 | 0.00 | 48 | 1012.0 |
| 20260905201559 | 38 | 287 | 1.6 | 9.7 | 0.00 | 0.00 | 0.00 | 48 | 1012.2 |
| 20260905201028 | 38 | 350 | 4.8 | 9.7 | 0.00 | 0.00 | 0.00 | 48 | 1012.3 |
| 20260905200532 | 38 | 194 | 1.6 | 8.0 | 0.00 | 0.00 | 0.00 | 48 | 1012.3 |
| 20260905195530 | 38 | 310 | 0.0 | 8.0 | 0.00 | 0.00 | 0.00 | 51 | 1012.4 |
| 20260905195029 | 37 | 0 | 3.2 | 8.0 | 0.00 | 0.00 | 0.00 | 48 | 1012.5 |
| 20260905194556 | 37 | 209 | 3.2 | 8.0 | 0.00 | 0.00 | 0.00 | 48 | 1012.5 |
| 20260905194029 | 37 | 198 | 1.6 | 8.0 | 0.00 | 0.00 | 0.00 | 52 | 1012.8 |
| 20260905193532 | 36 | 286 | 1.6 | 6.4 | 0.00 | 0.00 | 0.00 | 53 | 1012.9 |
| 20260905193050 | 36 | 290 | 1.6 | 6.4 | 0.00 | 0.00 | 0.00 | 55 | 1012.9 |
| 20260905192531 | 36 | 234 | 1.6 | 6.4 | 0.00 | 0.00 | 0.00 | 54 | 1012.9 |
| 20260905192031 | 35 | 338 | 1.6 | 4.8 | 0.00 | 0.00 | 0.00 | 53 | 1012.9 |
| 20260905191549 | 35 | 339 | 1.6 | 8.0 | 0.00 | 0.00 | 0.00 | 54 | 1013.0 |
| 20260905191031 | 35 | 259 | 1.6 | 8.0 | 0.00 | 0.00 | 0.00 | 53 | 1013.0 |
| 20260905190529 | 36 | 13 | 4.8 | 12.9 | 0.00 | 0.00 | 0.00 | 52 | 1012.9 |
| 20260905190059 | 36 | 59 | 6.4 | 12.9 | 0.00 | 0.00 | 0.00 | 51 | 1013.0 |
| 20260905185530 | 36 | 82 | 3.2 | 8.0 | 0.00 | 0.00 | 0.00 | 54 | 1013.3 |
| 20260905185029 | 36 | 67 | 3.2 | 8.0 | 0.00 | 0.00 | 0.00 | 51 | 1013.3 |
| 20260905184553 | 36 | 0 | 1.6 | 6.4 | 0.00 | 0.00 | 0.00 | 50 | 1013.4 |
| 20260905184029 | 36 | 107 | 1.6 | 9.7 | 0.00 | 0.00 | 0.00 | 51 | 1013.4 |
| 20260905183532 | 36 | 86 | 1.6 | 9.7 | 0.00 | 0.00 | 0.00 | 50 | 1013.6 |
| 20260905183106 | 36 | 53 | 3.2 | 9.7 | 0.00 | 0.00 | 0.00 | 51 | 1013.6 |
| 20260905182529 | 36 | 276 | 1.6 | 9.7 | 0.00 | 0.00 | 0.00 | 52 | 1013.7 |
| 20260905182030 | 36 | 19 | 4.8 | 9.7 | 0.00 | 0.00 | 0.00 | 50 | 1013.8 |
| 20260905181558 | 37 | 355 | 1.6 | 8.0 | 0.00 | 0.00 | 0.00 | 51 | 1013.8 |
| 20260905181031 | 37 | 55 | 3.2 | 8.0 | 0.00 | 0.00 | 0.00 | 51 | 1013.9 |
| 20260905180529 | 37 | 325 | 3.2 | 6.4 | 0.00 | 0.00 | 0.00 | 52 | 1014.0 |
| 20260905180057 | 37 | 355 | 3.2 | 6.4 | 0.00 | 0.00 | 0.00 | 51 | 1013.9 |
| 20260905175530 | 37 | 351 | 3.2 | 11.3 | 0.00 | 0.00 | 0.00 | 50 | 1014.0 |
| 20260905175028 | 37 | 240 | 1.6 | 11.3 | 0.00 | 0.00 | 0.00 | 51 | 1014.0 |
| 20260905174549 | 37 | 190 | 1.6 | 8.0 | 0.00 | 0.00 | 0.00 | 54 | 1014.1 |
| 20260905174035 | 37 | 34 | 1.6 | 8.0 | 0.00 | 0.00 | 0.00 | 52 | 1014.1 |
| 20260905173528 | 36 | 165 | 1.6 | 6.4 | 0.00 | 0.00 | 0.00 | 52 | 1014.2 |
| 20260905173059 | 36 | 299 | 1.6 | 6.4 | 0.00 | 0.00 | 0.00 | 52 | 1014.3 |
| 20260905172530 | 36 | 0 | 1.6 | 12.9 | 0.00 | 0.00 | 0.00 | 53 | 1014.3 |
| 20260905172030 | 36 | 15 | 1.6 | 12.9 | 0.00 | 0.00 | 0.00 | 52 | 1014.3 |
| 20260905171559 | 36 | 349 | 3.2 | 6.4 | 0.00 | 0.00 | 0.00 | 52 | 1014.2 |
| 20260905171029 | 36 | 0 | 1.6 | 6.4 | 0.00 | 0.00 | 0.00 | 54 | 1014.4 |
| 20260905170528 | 36 | 312 | 1.6 | 6.4 | 0.00 | 0.00 | 0.00 | 56 | 1014.4 |
| 20260905170100 | 36 | 45 | 1.6 | 6.4 | 0.00 | 0.00 | 0.00 | 56 | 1014.5 |
| 20260905165528 | 36 | 22 | 1.6 | 4.8 | 0.00 | 0.00 | 0.00 | 54 | 1014.5 |
| 20260905165030 | 36 | 269 | 1.6 | 4.8 | 0.00 | 0.00 | 0.00 | 58 | 1014.5 |
| 20260905164549 | 36 | 0 | 1.6 | 8.0 | 0.00 | 0.00 | 0.00 | 57 | 1014.5 |
| 20260905164029 | 36 | 308 | 1.6 | 8.0 | 0.00 | 0.00 | 0.00 | 59 | 1014.6 |
| 20260905163528 | 35 | 219 | 1.6 | 6.4 | 0.00 | 0.00 | 0.00 | 58 | 1014.7 |
| 20260905163237 | 35 | 249 | 0.0 | 9.7 | 0.00 | 0.00 | 0.00 | 59 | 1014.7 |
| 20260905162529 | 35 | 5 | 3.2 | 9.7 | 0.00 | 0.00 | 0.00 | 58 | 1014.8 |
| 20260905162030 | 35 | 355 | 4.8 | 11.3 | 0.00 | 0.00 | 0.00 | 57 | 1014.9 |
| 20260905161600 | 35 | 343 | 3.2 | 11.3 | 0.00 | 0.00 | 0.00 | 58 | 1014.9 |
| 20260905161030 | 35 | 5 | 1.6 | 8.0 | 0.00 | 0.00 | 0.00 | 61 | 1014.9 |
| 20260905160529 | 35 | 159 | 1.6 | 8.0 | 0.00 | 0.00 | 0.00 | 59 | 1014.9 |
| 20260905160058 | 35 | 82 | 1.6 | 8.0 | 0.00 | 0.00 | 0.00 | 60 | 1014.9 |
| 20260905155532 | 35 | 0 | 1.6 | 8.0 | 0.00 | 0.00 | 0.00 | 61 | 1014.9 |
| 20260905155029 | 35 | 325 | 1.6 | 4.8 | 0.00 | 0.00 | 0.00 | 62 | 1014.9 |
| 20260905154550 | 35 | 290 | 1.6 | 6.4 | 0.00 | 0.00 | 0.00 | 65 | 1015.0 |
| 20260905154030 | 34 | 0 | 1.6 | 6.4 | 0.00 | 0.00 | 0.00 | 62 | 1015.1 |
| 20260905153528 | 33 | 313 | 1.6 | 6.4 | 0.00 | 0.00 | 0.00 | 63 | 1015.1 |
| 20260905153110 | 33 | 346 | 3.2 | 8.0 | 0.00 | 0.00 | 0.00 | 63 | 1015.1 |
| 20260905152528 | 33 | 5 | 1.6 | 8.0 | 0.00 | 0.00 | 0.00 | 65 | 1015.2 |
| 20260905152033 | 33 | 279 | 4.8 | 8.0 | 0.00 | 0.00 | 0.00 | 63 | 1015.2 |
| 20260905151549 | 33 | 49 | 1.6 | 6.4 | 0.00 | 0.00 | 0.00 | 65 | 1015.1 |
| 20260905151030 | 33 | 305 | 1.6 | 6.4 | 0.00 | 0.00 | 0.00 | 68 | 1015.3 |
| 20260905150528 | 32 | 313 | 1.6 | 6.4 | 0.00 | 0.00 | 0.00 | 67 | 1015.3 |
| 20260905150058 | 32 | 318 | 1.6 | 6.4 | 0.00 | 0.00 | 0.00 | 69 | 1015.3 |
| 20260905145530 | 32 | 317 | 1.6 | 8.0 | 0.00 | 0.00 | 0.00 | 70 | 1015.3 |
| 20260905145030 | 32 | 13 | 1.6 | 8.0 | 0.00 | 0.00 | 0.00 | 71 | 1015.3 |
| 20260905144555 | 31 | 340 | 1.6 | 6.4 | 0.00 | 0.00 | 0.00 | 72 | 1015.4 |
| 20260905144029 | 31 | 0 | 0.0 | 6.4 | 0.00 | 0.00 | 0.00 | 74 | 1015.3 |
| 20260905143529 | 31 | 346 | 1.6 | 6.4 | 0.00 | 0.00 | 0.00 | 72 | 1015.3 |
| 20260905143058 | 31 | 360 | 1.6 | 4.8 | 0.00 | 0.00 | 0.00 | 74 | 1015.3 |
| 20260905142528 | 30 | 348 | 1.6 | 4.8 | 0.00 | 0.00 | 0.00 | 76 | 1015.4 |
| 20260905142029 | 30 | 0 | 0.0 | 0.0 | 0.00 | 0.00 | 0.00 | 78 | 1015.4 |
| 20260905141602 | 29 | 0 | 0.0 | 0.0 | 0.00 | 0.00 | 0.00 | 80 | 1015.4 |
| 20260905141029 | 28 | 0 | 0.0 | 0.0 | 0.00 | 0.00 | 0.00 | 84 | 1015.4 |
| 20260905140530 | 27 | 0 | 0.0 | 0.0 | 0.00 | 0.00 | 0.00 | 86 | 1015.4 |
| 20260905140106 | 27 | 0 | 0.0 | 0.0 | 0.00 | 0.00 | 0.00 | 87 | 1015.4 |
| 20260905135529 | 26 | 0 | 0.0 | 0.0 | 0.00 | 0.00 | 0.00 | 89 | 1015.4 |
| 20260905135030 | 26 | 0 | 0.0 | 0.0 | 0.00 | 0.00 | 0.00 | 91 | 1015.4 |
| 20260905134552 | 25 | 0 | 0.0 | 0.0 | 0.00 | 0.00 | 0.00 | 92 | 1015.5 |
| 20260905134030 | 25 | 0 | 0.0 | 0.0 | 0.00 | 0.00 | 0.00 | 92 | 1015.5 |
| 20260905133529 | 25 | 0 | 0.0 | 0.0 | 0.00 | 0.00 | 0.00 | 92 | 1015.4 |
| 20260905133049 | 25 | 0 | 0.0 | 0.0 | 0.00 | 0.00 | 0.00 | 93 | 1015.6 |
| 20260905132529 | 24 | 0 | 0.0 | 4.8 | 0.00 | 0.00 | 0.00 | 93 | 1015.5 |
| 20260905132029 | 24 | 0 | 0.0 | 4.8 | 0.00 | 0.00 | 0.00 | 94 | 1015.5 |
| 20260905131614 | 24 | 167 | 0.0 | 3.2 | 0.00 | 0.00 | 0.00 | 94 | 1015.4 |
| 20260905131029 | 23 | 139 | 0.0 | 3.2 | 0.00 | 0.00 | 0.00 | 95 | 1015.4 |
| 20260905130530 | 23 | 139 | 0.0 | 3.2 | 0.00 | 0.00 | 0.00 | 95 | 1015.4 |
| 20260905130055 | 23 | 173 | 1.6 | 3.2 | 0.00 | 0.00 | 0.00 | 96 | 1015.4 |
| 20260905125531 | 23 | 173 | 0.0 | 3.2 | 0.00 | 0.00 | 0.00 | 96 | 1015.3 |
| 20260905125029 | 23 | 173 | 0.0 | 3.2 | 0.00 | 0.00 | 0.00 | 96 | 1015.3 |
| 20260905124557 | 23 | 0 | 0.0 | 0.0 | 0.00 | 0.00 | 0.00 | 97 | 1015.4 |
| 20260905124034 | 23 | 0 | 0.0 | 0.0 | 0.00 | 0.00 | 0.00 | 97 | 1015.4 |
| 20260905123530 | 22 | 0 | 0.0 | 0.0 | 0.00 | 0.00 | 0.00 | 97 | 1015.3 |
| 20260905123053 | 22 | 0 | 0.0 | 0.0 | 0.00 | 0.00 | 0.00 | 97 | 1015.3 |
| 20260905122532 | 22 | 0 | 0.0 | 0.0 | 0.00 | 0.00 | 0.00 | 97 | 1015.2 |